�������l�o���
Date,Time,MP-1(��Sv/h),MP-2(��Sv/h),MP-3(��Sv/h),MP-4(��Sv/h),MP-5(��Sv/h),MP-6(��Sv/h),MP-7(��Sv/h),MP-8(��Sv/h),����,����(m/s),���J
2020/01/06,00:00,0.702,1.018,0.685,1.284,0.896,0.404,0.711,0.675,��,3.6,��
2020/01/06,00:10,0.704,1.021,0.686,1.283,0.894,0.405,0.711,0.675,��,2.5,��
2020/01/06,00:20,0.702,1.019,0.684,1.287,0.896,0.403,0.709,0.675,���쐼,2.8,��
2020/01/06,00:30,0.701,1.018,0.683,1.285,0.897,0.405,0.711,0.675,��,2.9,��
2020/01/06,00:40,0.701,1.020,0.684,1.286,0.895,0.402,0.711,0.675,���k��,3.8,��
2020/01/06,00:50,0.703,1.020,0.685,1.284,0.895,0.404,0.710,0.677,���k��,4.2,��
2020/01/06,01:00,0.703,1.019,0.684,1.285,0.896,0.404,0.709,0.675,���k��,4.1,��
2020/01/06,01:10,0.702,1.017,0.685,1.284,0.896,0.404,0.711,0.673,��,3.4,��
2020/01/06,01:20,0.703,1.019,0.684,1.285,0.896,0.403,0.709,0.674,��,3.5,��
2020/01/06,01:30,0.705,1.019,0.684,1.286,0.894,0.403,0.709,0.674,��,3.3,��
2020/01/06,01:40,0.704,1.018,0.685,1.284,0.895,0.404,0.710,0.674,��,3.5,��
2020/01/06,01:50,0.704,1.020,0.684,1.282,0.896,0.403,0.709,0.675,��,3.9,��
2020/01/06,02:00,0.703,1.017,0.685,1.283,0.895,0.404,0.708,0.675,��,4.1,��
2020/01/06,02:10,0.705,1.019,0.684,1.285,0.894,0.404,0.710,0.675,��,3.8,��
2020/01/06,02:20,0.705,1.018,0.684,1.285,0.895,0.403,0.710,0.674,��,4.1,��
2020/01/06,02:30,0.702,1.017,0.684,1.282,0.897,0.404,0.710,0.674,��,3.8,��
2020/01/06,02:40,0.704,1.020,0.687,1.287,0.897,0.403,0.710,0.675,��,3.8,��
2020/01/06,02:50,0.704,1.017,0.685,1.284,0.898,0.404,0.708,0.675,��,4.0,��
2020/01/06,03:00,0.702,1.018,0.684,1.283,0.897,0.403,0.711,0.677,���k��,4.3,��
2020/01/06,03:10,0.701,1.018,0.684,1.284,0.896,0.405,0.708,0.674,���k��,3.2,��
2020/01/06,03:20,0.703,1.018,0.684,1.284,0.895,0.404,0.708,0.675,��,3.2,��
2020/01/06,03:30,0.704,1.017,0.682,1.281,0.895,0.404,0.709,0.675,���k��,3.4,��
2020/01/06,03:40,0.704,1.018,0.686,1.284,0.894,0.403,0.710,0.675,���k��,2.9,��
2020/01/06,03:50,0.704,1.016,0.683,1.283,0.896,0.403,0.710,0.675,���k��,2.5,��
2020/01/06,04:00,0.703,1.016,0.685,1.282,0.895,0.403,0.710,0.675,���k��,2.5,��
2020/01/06,04:10,0.701,1.017,0.684,1.282,0.894,0.404,0.708,0.674,��,1.5,��
2020/01/06,04:20,0.703,1.018,0.684,1.286,0.895,0.403,0.708,0.675,���k��,1.8,��
2020/01/06,04:30,0.702,1.016,0.683,1.284,0.895,0.403,0.710,0.675,-,CALM,��
2020/01/06,04:40,0.703,1.017,0.685,1.283,0.893,0.404,0.709,0.676,-,CALM,��
2020/01/06,04:50,0.703,1.016,0.682,1.283,0.895,0.403,0.711,0.675,��쐼,0.7,��
2020/01/06,05:00,0.701,1.016,0.682,1.284,0.897,0.404,0.710,0.675,-,CALM,��
2020/01/06,05:10,0.703,1.017,0.686,1.282,0.894,0.403,0.709,0.676,��,1.1,��
2020/01/06,05:20,0.702,1.017,0.682,1.282,0.895,0.405,0.707,0.675,��쓌,2.1,��
2020/01/06,05:30,0.701,1.017,0.684,1.284,0.894,0.403,0.710,0.676,��,1.5,��
2020/01/06,05:40,0.700,1.016,0.684,1.285,0.896,0.403,0.708,0.675,��쐼,2.0,��
2020/01/06,05:50,0.703,1.017,0.683,1.283,0.896,0.403,0.709,0.674,��,3.0,��
2020/01/06,06:00,0.702,1.016,0.683,1.284,0.894,0.403,0.710,0.677,��쐼,2.2,��
2020/01/06,06:10,0.701,1.016,0.683,1.284,0.895,0.403,0.709,0.674,�쐼,2.3,��
2020/01/06,06:20,0.701,1.016,0.682,1.281,0.895,0.403,0.711,0.676,�쐼,1.9,��
2020/01/06,06:30,0.702,1.018,0.683,1.282,0.897,0.404,0.710,0.675,��쐼,2.4,��
2020/01/06,06:40,0.701,1.017,0.683,1.285,0.892,0.403,0.710,0.675,��쐼,1.8,��
2020/01/06,06:50,0.702,1.016,0.683,1.284,0.895,0.404,0.709,0.675,��,2.1,��
2020/01/06,07:00,0.702,1.018,0.683,1.282,0.894,0.402,0.708,0.676,��쐼,1.9,��
2020/01/06,07:10,0.703,1.016,0.683,1.284,0.893,0.403,0.708,0.674,��쐼,2.3,��
2020/01/06,07:20,0.702,1.016,0.683,1.283,0.893,0.403,0.711,0.672,��쐼,2.6,��
2020/01/06,07:30,0.702,1.017,0.681,1.283,0.893,0.403,0.708,0.676,�쐼,2.5,��
2020/01/06,07:40,0.700,1.017,0.683,1.283,0.894,0.403,0.711,0.674,�쐼,2.4,��
2020/01/06,07:50,0.703,1.018,0.683,1.282,0.892,0.403,0.709,0.676,���쐼,2.5,��
2020/01/06,08:00,0.703,1.013,0.681,1.285,0.895,0.404,0.709,0.675,���쐼,2.9,��
2020/01/06,08:10,0.703,1.017,0.682,1.286,0.892,0.403,0.710,0.675,���쐼,1.8,��
2020/01/06,08:20,0.705,1.016,0.683,1.286,0.895,0.403,0.710,0.677,��,3.5,��
2020/01/06,08:30,0.701,1.018,0.674,1.284,0.894,0.403,0.710,0.675,��,3.4,��
2020/01/06,08:40,0.705,1.018,0.672,1.284,0.897,0.404,0.711,0.676,�쐼,2.2,��
2020/01/06,08:50,0.705,1.017,0.683,1.282,0.897,0.404,0.709,0.674,��쐼,2.1,��
2020/01/06,09:00,0.704,1.017,0.683,1.286,0.895,0.406,0.710,0.677,��,1.5,��
2020/01/06,09:10,0.705,1.019,0.682,1.284,0.895,0.404,0.712,0.676,�쐼,1.3,��
2020/01/06,09:20,0.705,1.017,0.683,1.285,0.894,0.403,0.711,0.676,���쐼,1.5,��
2020/01/06,09:30,0.705,1.021,0.683,1.284,0.893,0.404,0.712,0.675,���k��,4.2,��
2020/01/06,09:40,0.705,1.019,0.684,1.284,0.894,0.405,0.712,0.677,���k��,5.5,��
2020/01/06,09:50,0.706,1.016,0.685,1.286,0.895,0.406,0.712,0.677,��,6.3,��
2020/01/06,10:00,0.705,1.020,0.685,1.286,0.896,0.404,0.711,0.676,���k��,2.6,��
2020/01/06,10:10,0.707,1.018,0.685,1.287,0.897,0.405,0.711,0.675,��,4.1,��
2020/01/06,10:20,0.707,1.020,0.683,1.283,0.897,0.404,0.710,0.676,��,3.4,��
2020/01/06,10:30,0.705,1.017,0.686,1.288,0.896,0.404,0.709,0.676,��,2.9,��
2020/01/06,10:40,0.706,1.018,0.685,1.284,0.896,0.404,0.710,0.675,��,4.2,��
2020/01/06,10:50,0.705,1.019,0.685,1.285,0.896,0.405,0.711,0.678,���쐼,3.6,��
2020/01/06,11:00,0.708,1.018,0.685,1.285,0.898,0.404,0.713,0.675,��,6.1,��
2020/01/06,11:10,0.707,1.017,0.684,1.284,0.896,0.403,0.713,0.674,���k��,4.9,��
2020/01/06,11:20,0.709,1.019,0.686,1.287,0.898,0.406,0.712,0.677,���k��,4.1,��
2020/01/06,11:30,0.708,1.018,0.685,1.287,0.900,0.406,0.712,0.677,���k��,6.6,��
2020/01/06,11:40,0.710,1.017,0.684,1.286,0.898,0.406,0.713,0.676,��,4.1,��
2020/01/06,11:50,0.709,1.018,0.684,1.287,0.900,0.405,0.713,0.678,��,6.9,��
2020/01/06,12:00,0.709,1.019,0.687,1.287,0.898,0.406,0.713,0.676,��,6.0,��
2020/01/06,12:10,0.708,1.020,0.686,1.286,0.900,0.404,0.712,0.678,���k��,4.9,��
2020/01/06,12:20,0.709,1.019,0.688,1.285,0.899,0.406,0.713,0.679,���k��,4.5,��
2020/01/06,12:30,0.710,1.020,0.687,1.288,0.898,0.406,0.712,0.679,���k��,6.0,��
2020/01/06,12:40,0.709,1.019,0.688,1.287,0.900,0.406,0.713,0.678,��,4.9,��
2020/01/06,12:50,0.706,1.020,0.684,1.286,0.898,0.406,0.712,0.677,��,6.3,��
2020/01/06,13:00,0.709,1.019,0.688,1.286,0.898,0.407,0.714,0.676,��,7.4,��
2020/01/06,13:10,0.708,1.019,0.688,1.288,0.900,0.407,0.714,0.676,��,7.1,��
2020/01/06,13:20,0.707,1.018,0.686,1.286,0.898,0.408,0.713,0.677,���k��,4.9,��
2020/01/06,13:30,0.708,1.019,0.687,1.287,0.901,0.407,0.713,0.676,�k��,4.5,��
2020/01/06,13:40,0.707,1.021,0.687,1.288,0.901,0.407,0.712,0.677,�k��,5.8,��
2020/01/06,13:50,0.708,1.020,0.686,1.287,0.900,0.406,0.714,0.678,�k�k��,5.2,��
2020/01/06,14:00,0.709,1.019,0.687,1.290,0.899,0.408,0.715,0.678,�k��,5.2,��
2020/01/06,14:10,0.708,1.018,0.688,1.289,0.900,0.407,0.715,0.678,�k��,4.7,��
2020/01/06,14:20,0.709,1.018,0.687,1.286,0.898,0.406,0.714,0.677,�k��,4.7,��
2020/01/06,14:30,0.707,1.020,0.687,1.288,0.897,0.407,0.712,0.676,�k��,4.4,��
2020/01/06,14:40,0.710,1.021,0.687,1.290,0.901,0.406,0.714,0.677,�k��,4.2,��
2020/01/06,14:50,0.708,1.023,0.686,1.290,0.900,0.407,0.714,0.677,�k��,3.4,��
2020/01/06,15:00,0.708,1.021,0.687,1.289,0.899,0.406,0.714,0.676,�k��,2.7,��
2020/01/06,15:10,0.709,1.022,0.686,1.288,0.902,0.406,0.713,0.678,�k��,4.9,��
2020/01/06,15:20,0.709,1.023,0.686,1.289,0.901,0.407,0.714,0.675,�k��,3.5,��
2020/01/06,15:30,0.709,1.023,0.688,1.290,0.903,0.406,0.712,0.677,�k��,3.1,��
2020/01/06,15:40,0.708,1.021,0.687,1.287,0.899,0.405,0.713,0.679,�k��,3.2,��
2020/01/06,15:50,0.709,1.024,0.687,1.289,0.901,0.408,0.713,0.677,�k�k��,3.1,��
2020/01/06,16:00,0.708,1.023,0.686,1.289,0.900,0.406,0.712,0.677,�k��,4.9,��
2020/01/06,16:10,0.708,1.022,0.688,1.290,0.901,0.406,0.713,0.675,�k��,6.6,��
2020/01/06,16:20,0.708,1.022,0.687,1.287,0.900,0.406,0.713,0.676,�k��,5.5,��
2020/01/06,16:30,0.707,1.023,0.686,1.288,0.899,0.405,0.711,0.676,���k��,5.2,��
2020/01/06,16:40,0.706,1.023,0.686,1.287,0.898,0.406,0.711,0.679,���k��,5.2,��
2020/01/06,16:50,0.707,1.022,0.685,1.288,0.901,0.405,0.712,0.677,���k��,5.2,��
2020/01/06,17:00,0.705,1.023,0.686,1.289,0.898,0.405,0.712,0.676,���k��,5.8,��
2020/01/06,17:10,0.708,1.024,0.686,1.290,0.900,0.405,0.712,0.677,���k��,4.2,��
2020/01/06,17:20,0.708,1.025,0.687,1.288,0.898,0.406,0.714,0.678,���k��,4.4,��
2020/01/06,17:30,0.707,1.024,0.687,1.288,0.899,0.405,0.713,0.677,���k��,3.3,��
2020/01/06,17:40,0.706,1.023,0.684,1.287,0.900,0.404,0.712,0.676,��,2.8,��
2020/01/06,17:50,0.707,1.022,0.685,1.288,0.898,0.404,0.713,0.677,��,4.0,��
2020/01/06,18:00,0.708,1.024,0.688,1.288,0.898,0.405,0.714,0.677,��,2.6,��
2020/01/06,18:10,0.707,1.022,0.687,1.287,0.902,0.406,0.714,0.675,���k��,4.0,��
2020/01/06,18:20,0.708,1.023,0.687,1.287,0.902,0.404,0.714,0.678,�k��,3.5,��
2020/01/06,18:30,0.708,1.022,0.686,1.289,0.899,0.405,0.714,0.677,�k,2.8,��
2020/01/06,18:40,0.708,1.023,0.685,1.287,0.898,0.406,0.712,0.676,�k�k��,5.5,��
2020/01/06,18:50,0.706,1.022,0.688,1.289,0.899,0.405,0.713,0.678,�k��,7.4,��
2020/01/06,19:00,0.706,1.023,0.686,1.286,0.902,0.404,0.712,0.676,�k��,7.4,��
2020/01/06,19:10,0.707,1.022,0.687,1.289,0.900,0.405,0.715,0.676,�k��,6.3,��
2020/01/06,19:20,0.709,1.023,0.687,1.287,0.899,0.405,0.713,0.674,�k�k��,5.8,��
2020/01/06,19:30,0.707,1.025,0.687,1.286,0.898,0.404,0.713,0.679,�k��,5.8,��
2020/01/06,19:40,0.707,1.021,0.687,1.289,0.900,0.405,0.712,0.677,�k��,7.1,��
2020/01/06,19:50,0.707,1.024,0.687,1.289,0.899,0.406,0.713,0.677,�k��,6.3,��
2020/01/06,20:00,0.706,1.025,0.687,1.294,0.899,0.406,0.715,0.676,�k��,6.0,��
2020/01/06,20:10,0.708,1.022,0.686,1.288,0.899,0.405,0.711,0.676,�k��,4.7,��
2020/01/06,20:20,0.708,1.023,0.687,1.287,0.899,0.404,0.713,0.676,�k��,5.5,��
2020/01/06,20:30,0.705,1.024,0.687,1.290,0.898,0.405,0.714,0.676,�k��,4.3,��
2020/01/06,20:40,0.707,1.022,0.687,1.289,0.899,0.405,0.714,0.675,�k��,4.6,��
2020/01/06,20:50,0.707,1.022,0.687,1.288,0.900,0.404,0.712,0.675,�k��,4.4,��
2020/01/06,21:00,0.708,1.019,0.686,1.289,0.899,0.406,0.712,0.677,�k�k��,5.6,��
2020/01/06,21:10,0.706,1.022,0.687,1.290,0.900,0.405,0.712,0.676,�k��,5.5,��
2020/01/06,21:20,0.708,1.023,0.685,1.288,0.901,0.405,0.713,0.676,�k��,6.4,��
2020/01/06,21:30,0.707,1.022,0.686,1.287,0.900,0.404,0.714,0.679,�k��,7.1,��
2020/01/06,21:40,0.707,1.024,0.687,1.288,0.899,0.403,0.713,0.675,�k��,6.6,��
2020/01/06,21:50,0.707,1.020,0.687,1.289,0.898,0.404,0.713,0.678,�k��,5.8,��
2020/01/06,22:00,0.707,1.022,0.686,1.289,0.900,0.403,0.712,0.675,�k��,3.8,��
2020/01/06,22:10,0.707,1.024,0.688,1.289,0.899,0.403,0.713,0.675,�k��,2.3,��
2020/01/06,22:20,0.706,1.024,0.687,1.290,0.899,0.406,0.713,0.676,�k�k��,0.9,��
2020/01/06,22:30,0.707,1.023,0.685,1.288,0.897,0.406,0.714,0.675,�k�k��,1.5,��
2020/01/06,22:40,0.706,1.022,0.684,1.290,0.899,0.403,0.713,0.677,�k�k��,2.8,��
2020/01/06,22:50,0.707,1.022,0.686,1.290,0.898,0.405,0.714,0.676,�k�k��,3.9,��
2020/01/06,23:00,0.706,1.022,0.687,1.290,0.900,0.404,0.712,0.676,�k�k��,5.5,��
2020/01/06,23:10,0.706,1.021,0.687,1.288,0.898,0.405,0.711,0.675,�k�k��,5.3,��
2020/01/06,23:20,0.705,1.024,0.685,1.289,0.899,0.405,0.713,0.676,�k�k��,4.4,��
2020/01/06,23:30,0.708,1.022,0.685,1.290,0.898,0.405,0.712,0.676,�k�k��,4.6,��
2020/01/06,23:40,0.707,1.023,0.687,1.289,0.897,0.404,0.713,0.676,�k�k��,4.9,��
2020/01/06,23:50,0.706,1.022,0.686,1.286,0.899,0.405,0.712,0.677,�k�k��,5.8,��
